Billings, MT

5:43 PM MST on January 18, 2018 (GMT -0700)
Billings Logan International

Weather History for KBIL - February, 2013

Change the Weather History Date:

Sunday, February 10, 2013

  Actual Average Record
Temperature  
Mean Temperature 23 °F 29 °F  
Max Temperature 29 °F 39 °F 72 °F (1961)
Min Temperature 16 °F 20 °F -21 °F (1939)
Degree Days  
Heating Degree Days 42 36  
Month to date heating degree days 287 363  
Since 1 July heating degree days 3966 4359  
Cooling Degree Days 0 0  
Month to date cooling degree days 0 0  
Year to date cooling degree days 0 0  
Moisture  
Dew Point 19 °F    
Average Humidity 77    
Maximum Humidity 92    
Minimum Humidity 62    
Precipitation  
Precipitation 0.08 in 0.01 in 0.32 in (1984)
Month to date precipitation 0.08 0.15  
Year to date precipitation 0.67 0.63  
Snow  
Snow 1.30 in 0.20 in 2.00 in (1978)
Month to date snowfall 1.3 2.0  
Since 1 July snowfall 29.0 30.3  
Snow Depth 1.00 in    
Sea Level Pressure  
Sea Level Pressure 30.08 in    
Wind  
Wind Speed 11 mph (North)    
Max Wind Speed 28 mph    
Max Gust Speed 35 mph    
Visibility 7 miles    
Events Snow    
T = Trace of Precipitation, MM = Missing Value Source: NWS Daily Summary

Daily Weather History Graph

Daily Weather History Graph

Search for Another Location

Airport or City:

Trip Planner

Search our weather history database for the weather conditions in past years. The results will help you decide how hot, cold, wet, or windy it might be!

Date:

Astronomy

Feb. 10, 2013 Rise Set
Actual Time 7:23 AM MST 5:33 PM MST
Civil Twilight 6:52 AM MST 6:04 PM MST
Nautical Twilight 6:17 AM MST 6:40 PM MST
Astronomical Twilight 5:42 AM MST 7:14 PM MST
Moon 7:10 AM MST (2/10) 6:33 PM MST (2/10)
Length of Visible Light 11h 12m
Length of Day
10h 10m
New Moon, 0% of the Moon is Illuminated
Feb 10
New Moon
Feb 17
First Quarter
Feb 25
Full
Mar 4
Last Quarter
Mar 11
New

Hourly Weather History & Observations

Time (MST) Temp. Windchill Dew Point Humidity Pressure Visibility Wind Dir Wind Speed Gust Speed Precip Events Conditions
12:39 AM 28.9 °F 22.8 °F 26.1 °F 89% 29.89 in 1.0 mi NNE 5.8 mph - 0.00 in Snow Light Snow
12:53 AM 28.0 °F 21.7 °F 26.1 °F 92% 29.96 in 1.0 mi North 5.8 mph - 0.01 in Snow Light Snow
1:01 AM 28.0 °F 20.0 °F 26.1 °F 92% 29.89 in 1.0 mi North 8.1 mph - 0.01 in Snow Light Snow
1:28 AM 28.0 °F 19.3 °F 26.1 °F 92% 29.89 in 1.0 mi NNW 9.2 mph - 0.02 in Snow Light Snow
1:33 AM 28.9 °F 19.2 °F 26.1 °F 89% 29.89 in 5.0 mi NNW 11.5 mph - 0.02 in Snow Light Snow
1:53 AM 28.9 °F 18.2 °F 26.1 °F 89% 29.97 in 9.0 mi North 13.8 mph - 0.02 in Snow Light Snow
2:12 AM 28.9 °F 16.9 °F 25.0 °F 85% 29.89 in 10.0 mi North 17.3 mph - 0.00 in   Overcast
2:53 AM 28.0 °F 16.5 °F 25.0 °F 88% 29.98 in 10.0 mi North 15.0 mph - 0.00 in   Overcast
3:53 AM 27.0 °F 17.3 °F 23.0 °F 85% 29.99 in 10.0 mi NNE 10.4 mph - 0.00 in   Overcast
4:53 AM 25.0 °F 19.3 °F 23.0 °F 92% 30.02 in 10.0 mi West 4.6 mph - N/A   Overcast
5:25 AM 27.0 °F 17.3 °F 23.0 °F 85% 29.94 in 2.0 mi WNW 10.4 mph - 0.00 in Snow Light Snow
5:29 AM 26.1 °F 15.6 °F 23.0 °F 88% 29.95 in 1.0 mi NW 11.5 mph - 0.01 in Snow Light Snow
5:42 AM 26.1 °F 16.2 °F 23.0 °F 88% 29.95 in 2.0 mi NW 10.4 mph - 0.01 in Snow Light Snow
5:53 AM 26.1 °F 15.6 °F 23.0 °F 88% 30.04 in 1.5 mi NW 11.5 mph - 0.01 in Snow Light Snow
6:29 AM 25.0 °F 13.1 °F 21.0 °F 85% 29.96 in 4.0 mi NW 13.8 mph - 0.02 in Snow Light Snow
6:42 AM 25.0 °F 13.1 °F 21.0 °F 85% 29.96 in 10.0 mi NNW 13.8 mph - 0.02 in   Overcast
6:53 AM 25.0 °F 12.2 °F 21.0 °F 85% 30.06 in 10.0 mi NNW 16.1 mph - 0.02 in   Overcast
7:53 AM 26.1 °F 16.2 °F 17.1 °F 69% 30.10 in 10.0 mi North 10.4 mph - 0.00 in   Mostly Cloudy
8:53 AM 25.0 °F 15.5 °F 17.1 °F 72% 30.12 in 6.0 mi North 9.2 mph - 0.00 in Snow Light Snow
9:53 AM 25.0 °F 13.1 °F 15.1 °F 66% 30.14 in 10.0 mi NNW 13.8 mph - 0.00 in   Mostly Cloudy
10:53 AM 25.0 °F 12.2 °F 16.0 °F 69% 30.14 in 10.0 mi NNW 16.1 mph - N/A   Mostly Cloudy
11:53 AM 26.1 °F 12.7 °F 15.1 °F 63% 30.14 in 10.0 mi NNW 18.4 mph 25.3 mph N/A   Mostly Cloudy
12:53 PM 27.0 °F 12.8 °F 15.1 °F 61% 30.12 in 10.0 mi NNW 21.9 mph 35.7 mph N/A   Overcast
1:53 PM 27.0 °F 13.5 °F 15.1 °F 61% 30.12 in 10.0 mi North 19.6 mph 25.3 mph N/A   Overcast
2:53 PM 25.0 °F 12.6 °F 14.0 °F 63% 30.14 in 10.0 mi NNW 15.0 mph - N/A   Mostly Cloudy
3:21 PM 25.0 °F 14.8 °F 18.0 °F 75% 30.03 in 6.0 mi North 10.4 mph - 0.00 in Snow Light Snow
3:43 PM 24.1 °F 12.5 °F 16.0 °F 71% 30.04 in 10.0 mi North 12.7 mph - 0.00 in   Overcast
3:53 PM 25.0 °F 13.6 °F 15.1 °F 66% 30.17 in 10.0 mi North 12.7 mph - 0.00 in   Overcast
4:53 PM 24.1 °F 16.0 °F 15.1 °F 69% 30.18 in 10.0 mi North 6.9 mph - 0.00 in   Overcast
5:29 PM 21.9 °F 11.7 °F 17.1 °F 82% 30.07 in 2.5 mi NE 9.2 mph - 0.00 in Snow Light Snow
5:44 PM 21.9 °F 12.5 °F 18.0 °F 85% 30.07 in 1.8 mi NNE 8.1 mph - 0.00 in Snow Light Snow
5:46 PM 21.9 °F 13.4 °F 18.0 °F 85% 30.07 in 1.0 mi NNE 6.9 mph - 0.00 in Snow Light Snow
5:53 PM 21.9 °F 13.4 °F 19.0 °F 89% 30.20 in 1.0 mi North 6.9 mph - 0.00 in Snow Light Snow
6:04 PM 21.9 °F 12.5 °F 18.0 °F 85% 30.07 in 1.5 mi NNE 8.1 mph - 0.01 in Snow Light Snow
6:15 PM 21.0 °F 10.6 °F 18.0 °F 88% 30.08 in 2.0 mi NNE 9.2 mph - 0.01 in Snow Light Snow
6:20 PM 21.0 °F 11.4 °F 18.0 °F 88% 30.08 in 1.5 mi North 8.1 mph - 0.01 in Snow Light Snow
6:45 PM 21.0 °F 13.4 °F 18.0 °F 88% 30.08 in 3.0 mi North 5.8 mph - 0.02 in Snow Light Snow
6:53 PM 21.0 °F 13.4 °F 18.0 °F 88% 30.22 in 5.0 mi North 5.8 mph - 0.02 in Snow Light Snow
7:53 PM 21.0 °F - 18.0 °F 88% 30.22 in 3.0 mi Calm Calm - 0.00 in Snow Light Snow
8:12 PM 21.0 °F - 18.0 °F 88% 30.09 in 4.0 mi Calm Calm - 0.00 in Snow Light Snow
8:21 PM 19.9 °F - 18.0 °F 92% 30.10 in 7.0 mi Calm Calm - 0.00 in Snow Light Snow
8:31 PM 21.0 °F - 18.0 °F 88% 30.10 in 9.0 mi Calm Calm - 0.00 in Snow Light Snow
8:53 PM 21.0 °F 16.2 °F 19.0 °F 92% 30.23 in 10.0 mi East 3.5 mph - 0.00 in Snow Light Snow
9:18 PM 19.9 °F 14.9 °F 18.0 °F 92% 30.10 in 9.0 mi East 3.5 mph - 0.00 in Snow Light Snow
9:53 PM 19.0 °F 13.9 °F 17.1 °F 92% 30.25 in 9.0 mi South 3.5 mph - 0.00 in Snow Light Snow
10:19 PM 19.0 °F - 17.1 °F 92% 30.10 in 10.0 mi Calm Calm - 0.00 in   Overcast
10:46 PM 19.0 °F 12.3 °F 16.0 °F 88% 30.10 in 10.0 mi South 4.6 mph - 0.00 in   Scattered Clouds
10:53 PM 18.0 °F 9.8 °F 16.0 °F 92% 30.24 in 10.0 mi SSW 5.8 mph - 0.00 in   Scattered Clouds
11:53 PM 17.1 °F 6.6 °F 14.0 °F 88% 30.23 in 10.0 mi SSW 8.1 mph - N/A   Partly Cloudy